Home > Weather > Visalia > Past weeks

Flag for USA Past Weather in Visalia, California, USA — Yesterday and Last 2 Weeks

Now
91 °F

Sunny.


Feels Like: 92 °F
Forecast: 69 / 108 °F
Wind: 5 mph from Southwest

Location: Visalia Municipal

Current Time: Jul 27, 2016 at 12:22:26 PM

Latest Report: Jul 27, 2016 at 11:56 AM


Visibility: 10 mi

Pressure: 29.88 "Hg

Humidity: 38%

Dew Point: 62 °F

Location of VisaliaLocation

Past Weather in Visalia — Graph

°F

Visalia Temperature Yesterday

Maximum temperature yesterday: 102 °F (at 5:56 PM)
Minimum temperature yesterday: 65 °F (at 5:56 AM)
Average temperature yesterday: 84 °F

High & Low Weather Summary for the Past Weeks

 TemperatureHumidityPressure
High103 °F (Jul 24, 4:56 PM)87% (Jul 14, 4:56 AM)30.09 "Hg (Jul 14, 4:56 AM)
Low59 °F (Jul 13, 5:56 AM)11% (Jul 24, 5:56 PM)29.76 "Hg (Jul 15, 6:56 PM)
Average81 °F46%29.91 "Hg
* Reported Jul 12 10:56 AM — Jul 27 10:56 AM, Visalia, Weather by CustomWeather, © 2016

Note: Actual official high and low records may vary slightly from our data, if they occured in-between our weather recording intervals... More about our weather records

Advertising

Visalia Weather History for the Previous 24 Hours

Scroll right to see more
 ConditionsComfort  
Time TempWeatherWind HumidityBarometerVisibility
10:56 AM
Wed, Jul 27
88 °FSunny.7 mph38%29.88 "Hg10 mi
9:56 AM84 °FSunny.6 mph43%29.89 "Hg9 mi
8:56 AM80 °FSunny.3 mph51%29.88 "Hg9 mi
7:56 AM74 °FSunny.No wind67%29.88 "Hg7 mi
6:56 AM69 °FClear.3 mph84%29.87 "Hg6 mi
5:56 AM67 °FClear.7 mph87%29.84 "Hg8 mi
4:56 AM69 °FClear.3 mph79%29.83 "Hg10 mi
3:56 AM70 °FClear.No wind79%29.83 "Hg10 mi
2:56 AM71 °FClear.No wind76%29.82 "Hg10 mi
1:56 AM78 °FClear.6 mph56%29.82 "Hg10 mi
12:56 AM76 °FClear.No wind67%29.82 "Hg10 mi
11:56 PM
Tue, Jul 26
77 °FClear.No wind64%29.82 "Hg10 mi
10:56 PM84 °FClear.5 mph46%29.82 "Hg10 mi
9:56 PM86 °FClear.No wind45%29.81 "Hg10 mi
8:56 PM87 °FSunny.7 mph46%29.79 "Hg10 mi
7:56 PM93 °FSunny.6 mph36%29.78 "Hg10 mi
6:56 PM99 °FSunny.10 mph28%29.78 "Hg10 mi
5:56 PM102 °FSunny.8 mph23%29.78 "Hg10 mi
4:56 PM101 °FSunny.10 mph22%29.78 "Hg10 mi
3:56 PM100 °FSunny.7 mph31%29.80 "Hg10 mi
2:56 PM99 °FSunny.9 mph33%29.82 "Hg10 mi
1:56 PM97 °FSunny.7 mph32%29.84 "Hg10 mi
12:56 PM92 °FSunny.6 mph36%29.86 "Hg10 mi
Weather by CustomWeather, © 2016

See weather overviewHow to use our weather pages